Location: Eckley
(40.9930°N, 75.8630°W)
Time: 12:39:30
(UTC-04:00)

Daily predictions for brighter satellites

Satellite Brightness Start Highest point End
(mag) Time Altitude Azimuth Time Altitude Azimuth Time Altitude Azimuth
Cosmos 1943 4.3 20:46:52 10° NW 20:52:14 46° WSW 20:57:32 10° S
Cosmos 1709 Rocket 4.4 20:49:50 10° SSW 20:55:55 69° W 21:02:05 10° N
USA 186 2.2 20:53:06 10° S 20:56:05 60° W 20:59:16 10° NNW
Cosmos 1356 Rocket 3.8 20:52:08 10° SSE 20:56:10 46° E 21:00:16 10° NNE
NOSS 2-2 (D) 3.9 20:55:20 10° S 20:59:11 42° ESE 21:03:33 10° NE
Cosmos 1844 Rocket 3.4 20:56:25 10° SSE 21:01:20 31° ESE 21:06:15 10° NE
Cosmos 2074 Rocket 4.1 20:57:00 10° S 21:03:09 60° E 21:09:19 10° NNE
Meteor 2-3 Rocket 3.8 20:59:05 10° S 21:04:43 88° W 21:10:21 10° N
Cosmos 1825 4.2 21:03:38 10° ESE 21:05:18 13° E 21:06:58 10° ENE
SL-27 R/B 3.7 21:02:32 10° N 21:05:46 29° ENE 21:08:57 10° SE
H-2A R/B 2.6 21:04:47 10° SE 21:08:53 43° ENE 21:12:56 10° N
NOSS 2-2 (C) 3.5 21:09:48 10° SSW 21:13:48 61° ESE 21:18:24 10° NE
Cosmos 2263 Rocket 3.6 21:11:07 10° SW 21:16:29 43° WNW 21:21:52 10° N
Cosmos 1340 Rocket 3.4 21:13:32 10° SSW 21:17:28 63° W 21:21:28 10° N
YAOGAN 6 4.1 21:17:30 12° ESE 21:19:49 21° ENE 21:22:32 10° NNE
Cosmos 1408 4.2 21:18:10 12° SE 21:20:06 18° E 21:22:37 10° NE
NOSS 8 (A) 4.4 21:17:10 10° SSW 21:20:42 82° ESE 21:24:23 10° NE
Cosmos 1624 Rocket 4.0 21:16:52 10° SSW 21:22:06 77° ESE 21:27:26 10° NNE
Envisat 3.1 21:17:29 10° SSE 21:22:30 65° ENE 21:27:32 10° N
BREEZE-M DEB (TANK) 2.4 21:22:32 10° WNW 21:24:29 46° SSW 21:26:55 14° SE
Cosmos 1782 3.0 21:20:37 10° N 21:24:34 54° E 21:28:20 11° SSE
Cosmos 1939 Rocket 2.7 21:21:05 10° SSE 21:24:56 78° ENE 21:28:51 10° N
Atlas Centaur 2 2.9 21:23:01 10° SW 21:25:14 16° S 21:26:36 13° SSE
H-2A R/B 4.0 21:25:28 10° E 21:28:27 15° ENE 21:31:26 10° NNE
Cosmos 1238 Rocket 3.9 21:27:33 10° NNE 21:30:01 20° ENE 21:31:26 16° ESE
Sich 1 Rocket 3.8 21:27:53 10° S 21:32:20 54° E 21:36:49 10° NNE
NOSS 2-2 (E) 3.7 21:28:38 10° SW 21:32:47 79° NW 21:37:40 10° NNE
SPOT 5 3.2 21:28:50 12° SSE 21:33:40 60° ENE 21:38:57 10° N
Meteor 2-10 Rocket 4.1 21:28:09 10° NNW 21:33:57 71° W 21:39:37 10° S
ALOS 4.4 21:30:36 10° SSW 21:34:24 25° W 21:38:14 10° NW
Cosmos 2341 Rocket 4.5 21:29:50 10° SSE 21:35:40 41° E 21:41:28 10° NNE
ERBS 2.3 21:32:38 10° NW 21:36:06 80° SW 21:38:24 20° SE
PSLV R/B 3.8 21:34:51 20° SE 21:36:26 37° ENE 21:39:11 10° N
Cosmos 1674 Rocket 3.5 21:33:09 10° N 21:37:38 81° E 21:41:52 11° S
Cosmos 1606 3.1 21:35:00 10° N 21:38:48 46° E 21:41:22 19° SE
Cosmos 407 Rocket 3.6 21:35:45 10° NNW 21:40:59 65° ENE 21:45:02 17° SSE
SPOT 1/Viking Rocket 4.2 21:39:31 17° SE 21:43:08 41° ENE 21:47:59 10° N
Terra 3.8 21:42:24 11° E 21:44:41 15° ENE 21:47:22 10° NNE
Cosmos 1892 4.1 21:42:11 10° SSW 21:45:48 40° WNW 21:49:28 10° N
Cosmos 1452 Rocket 3.7 21:41:00 10° S 21:46:02 48° ESE 21:51:05 10° NNE
ERS-1 Rocket 3.9 21:43:49 10° S 21:48:39 47° W 21:53:32 10° NNW
Cosmos 1782 Rocket 4.2 21:47:17 19° SSE 21:49:53 37° E 21:54:01 10° NNE
Cosmos 1190 Rocket 4.0 21:47:23 10° NNW 21:52:36 81° WSW 21:56:41 17° SSE
Cosmos 1140 Rocket 4.4 21:50:38 10° N 21:55:16 33° ENE 21:57:55 21° ESE
PSLV R/B 3.8 21:54:14 10° W 21:57:34 46° SSW 21:58:46 31° SSE
Cosmos 962 Rocket 4.5 21:54:35 11° S 22:00:21 64° E 22:06:29 10° NNE
Coronas F rocket 4.4 22:00:19 10° WSW 22:02:00 15° WNW 22:03:42 10° NW
Okean 3 3.6 22:00:05 10° N 22:04:20 58° E 22:06:19 29° SSE
USA 234 3.5 21:59:45 10° ENE 22:05:53 41° SE 22:11:57 10° SSW
Cosmos 1975 Rocket 3.3 22:01:44 10° N 22:05:57 50° E 22:07:44 30° SE
Cosmos 2154 Rocket 4.0 22:00:36 10° S 22:06:50 89° W 22:13:05 10° N
Intercosmos 25 3.7 22:07:22 33° SE 22:08:13 38° E 22:11:16 10° NNE
CZ-4B R/B 3.4 22:05:43 10° NNE 22:10:41 63° ESE 22:13:59 20° S
BREEZE-M DEB (TANK) 4.4 22:08:19 10° W 22:11:04 39° N 22:17:43 10° ENE
MetOp-B 4.2 22:07:40 18° S 22:11:39 77° WSW 22:17:02 10° NNW
SL-8 R/B 4.3 22:08:34 10° WSW 22:13:20 58° NNW 22:18:05 10° ENE
Cosmos 1908 Rocket 3.9 22:10:46 10° SSW 22:15:06 65° W 22:19:31 10° N
COSMOS 2406 4.3 22:10:24 10° NW 22:15:43 39° WSW 22:20:21 13° S
USA 245 2.7 22:19:17 51° S 22:19:59 84° W 22:23:38 10° NNW
SL-08 RB Rocket 3.8 22:18:58 34° SE 22:20:51 65° ENE 22:25:27 10° N
Cosmos 1378 Rocket 3.8 22:17:41 10° NNW 22:21:58 66° W 22:24:19 26° S
Cosmos 676 Rocket 4.1 22:17:21 10° NNW 22:22:32 73° WSW 22:25:21 27° S
ARGOS 3.1 22:19:51 28° SSE 22:22:46 82° ENE 22:28:09 10° NNW
NOSS 5 (C) 4.3 22:19:56 10° SW 22:23:23 79° NW 22:26:29 10° NNE
ATLAS 5 CENTAUR R/B 3.4 22:19:02 10° NW 22:24:38 38° WSW 22:28:52 18° S
Cosmos 1295 Rocket 4.5 22:21:05 20° S 22:25:33 73° E 22:31:50 10° NNE
Cosmos 1184 Rocket 2.8 22:24:37 43° SSW 22:25:37 81° W 22:28:57 10° N
CZ-4 R/B 3.7 22:23:29 10° NNE 22:28:10 70° ESE 22:30:17 32° S
CZ-3C R/B 4.2 22:18:14 10° SW 22:28:22 16° SSW 22:30:50 15° S
Cosmos 1174 3.2 22:26:14 10° NW 22:29:26 64° WSW 22:29:36 62° SW
Cosmos 1954 Rocket 4.0 22:24:19 10° NNW 22:29:32 82° WSW 22:31:54 33° SSE
Cosmos 1862 4.3 22:28:46 13° SSW 22:32:10 46° WNW 22:36:07 10° N
Cosmos 2151 Rocket 4.1 22:32:07 38° ESE 22:32:36 39° E 22:36:51 10° NNE
Cosmos 2278 Rocket 2.1 22:28:11 10° SSW 22:33:52 90° ESE 22:39:35 10° NNE
Cosmos 489 Rocket 4.4 22:28:29 10° NNW 22:34:44 84° ENE 22:37:38 34° SSE
Cosmos 1844 4.3 22:31:19 10° SW 22:36:58 58° WNW 22:42:43 10° NNE
CENTAUR R/B 4.4 22:31:13 10° NW 22:38:00 31° WSW 22:44:20 12° SSW
Cosmos 1741 Rocket 4.2 22:33:03 10° NNW 22:38:13 57° ENE 22:39:49 40° ESE
Cosmos 1833 Rocket 3.7 22:33:54 10° N 22:38:56 33° ENE 22:40:56 26° E
Cosmos 2366 rocket 4.2 22:36:39 34° SSE 22:39:12 55° E 22:45:22 10° NNE
Cosmos 1825 3.4 22:37:57 17° SW 22:40:31 39° WNW 22:44:09 10° N
Cosmos 2084 3.2 22:37:51 11° SW 22:41:29 75° NW 22:45:19 10° NNE
COSMOS 2487 2.7 22:40:51 10° NNW 22:44:25 61° WSW 22:44:48 56° SW
Cosmos 1844 Rocket 4.2 22:39:53 10° SW 22:45:05 37° WNW 22:50:19 10° N
USA 229 DEB 4.4 22:41:54 10° NNW 22:48:44 47° NE 22:52:17 27° ESE
USA 229 4.4 22:42:00 10° NNW 22:48:49 47° NE 22:52:24 27° ESE
APEX 3.2 22:50:10 69° SE 22:50:20 70° ESE 22:55:07 10° NNE
CZ-4C R/B 3.1 22:51:49 75° S 22:52:08 87° WSW 22:56:09 10° NNW
Cosmos 1812 4.0 22:49:43 10° NNE 22:52:41 29° ENE 22:52:41 29° ENE
Cosmos 2082 Rocket 2.5 22:48:13 10° NNW 22:53:49 53° ENE 22:55:25 40° ESE
Cosmos 2218 Rocket 4.0 22:59:14 32° S 23:02:29 85° W 23:08:56 10° N
Okean 1 Rocket 4.3 23:05:04 29° ENE 23:05:04 29° ENE 23:08:13 10° NNE
Okean 2 Rocket 4.3 23:02:50 20° SW 23:05:19 37° WNW 23:09:26 10° N
Cosmos 2297 3.6 23:02:58 37° SSW 23:05:19 83° ESE 23:11:05 10° NNE
Landsat 7 4.1 23:05:01 47° SSW 23:06:08 62° W 23:10:52 10° NNW
H-2A R/B 2.2 23:05:41 48° S 23:07:13 77° WSW 23:12:36 10° NNW
Cosmos 1300 Rocket 4.5 23:08:01 35° ENE 23:08:01 35° ENE 23:11:27 10° NNE
Cosmos 1242 Rocket 3.9 23:07:08 10° NNW 23:10:26 33° W 23:10:42 32° WSW
Cosmos 1727 Rocket 3.9 23:13:50 10° N 23:20:02 84° W 23:21:45 51° S
Terra 2.0 23:21:17 56° SW 23:21:53 61° W 23:26:37 10° NNW
Spot 4 3.7 23:21:25 72° S 23:21:54 83° WSW 23:26:47 10° NNW
IGS 5A 3.8 23:25:17 57° W 23:25:17 57° W 23:29:19 10° NNW
ASTEX 1 3.2 23:20:39 10° N 23:25:36 76° E 23:25:46 75° ESE
Timation 2 Rocket 4.4 23:28:06 10° NW 23:33:47 46° WSW 23:35:01 40° SW
Cosmos 614 Rocket 4.4 23:29:03 10° NNW 23:33:56 48° WSW 23:34:27 46° WSW
Okean 1 3.8 23:31:21 10° N 23:34:40 58° N 23:34:40 58° N
Cosmos 2369 Rocket 3.8 23:46:17 20° ENE 23:46:17 20° ENE 23:48:58 10° NE
Meteor 1-20 Rocket 4.3 23:43:42 55° SW 23:44:48 68° WNW 23:50:21 10° N
BREEZE-M DEB (TANK) 4.4 23:43:11 10° NW 23:45:32 24° NNE 23:50:24 10° ENE
USA 234 3.7 23:42:36 10° NE 23:48:59 59° NW 23:55:22 10° WSW
Cosmos 1302 Rocket 4.5 23:54:59 50° ENE 23:54:59 50° ENE 23:59:17 10° NNE
